[[{"header":{"parameterUnit":"m.s-1","parameterCategory":1,"la1":30.2991,"la2":30.254,"lo1":-89.0895,"lo2":-89.0444,"dy":0.0017,"dx":0.0017,"nx":28,"ny":28,"refTime":"2024-06-23T09:00:00:Z","depth":0,"parameterNumber":2,"parameterNumberName":"U-component_of_WINDS"},"data":[0,0,0,0,0,0,0,0,0,0,0,0,0,0,0,0,0,0,0,0,0,0,0,0,0,0,0,0,0,0,0,0,0,0,0,0,0,0,0,0,0,0,0,0,0,0,0,0,0,0,0,0,0,0,0,0,0,0,2.0711,2.0712,0,2.0731,2.0731,2.0731,2.0738,2.0738,2.0738,2.0738,2.0757,2.0758,2.0758,0,0,0,0,0,0,0,0,0,0,0,0,0,2.0681,2.0682,2.0711,2.0712,2.0712,2.073,2.0731,2.0731,2.0738,2.0738,2.0738,2.0738,2.0757,2.0758,2.0758,0,0,0,0,0,0,0,0,0,0,0,0,0,2.0697,2.0682,2.0711,2.0718,2.0718,2.073,2.0731,2.0731,2.0738,2.0738,2.0738,2.0738,2.0757,2.0758,2.0758,2.0766,0,0,2.0761,2.0761,0,0,0,0,0,0,0,0,2.0696,2.0698,2.0716,2.0717,2.0718,2.0732,2.0727,2.0743,2.0738,2.0731,2.0738,2.0738,2.0749,2.075,2.0754,2.0766,2.0767,2.0761,2.0762,2.0762,2.0762,0,0,0,0,0,0,0,2.0695,2.0697,2.0719,2.0717,2.0718,2.0719,2.0722,2.073,2.074,2.0731,2.0732,2.0734,2.0749,2.0753,2.0755,2.0768,2.0761,2.0762,2.0762,2.0763,2.0787,2.0788,0,0,0,0,0,0,2.0692,2.0696,2.0718,2.072,2.0706,2.072,2.0722,2.0727,2.074,2.0742,2.0734,2.0734,2.0752,2.0754,2.0755,2.0765,2.0762,2.0763,2.0763,2.0787,2.0787,2.0788,0,0,0,0,0,0,2.0692,2.0694,2.0718,2.0708,2.0711,2.0721,2.0726,2.0728,2.0732,2.0742,2.0744,2.0736,2.0752,2.0754,2.0763,2.0766,2.0763,2.0764,2.0787,2.0787,2.0788,2.0784,0,0,0,0,0,0,2.0691,2.0694,2.0697,2.0708,2.0711,2.0725,2.0726,2.0728,2.0733,2.0734,2.0745,2.0746,2.0752,2.0762,2.0764,2.0767,2.0765,2.0787,2.0787,2.0788,2.0784,2.0784,2.0784,0,0,0,0,0,2.069,2.0695,2.0697,2.07,2.0715,2.0725,2.0727,2.0734,2.0734,2.0736,2.0743,2.0746,2.0765,2.0763,2.0765,2.0768,2.0787,2.0787,2.0787,2.0784,2.0784,2.0784,0,0,0,0,0,0,2.0683,2.0696,2.0699,2.0708,2.0715,2.0726,2.073,2.0733,2.0741,2.0741,2.0749,2.0751,2.076,2.0765,2.0762,2.0776,2.0776,2.0777,2.0772,2.0772,2.0773,2.0771,2.0765,0,0,0,0,0,2.0683,2.069,2.0701,2.0708,2.0712,2.072,2.0725,2.0729,2.0737,2.074,2.0748,2.0755,2.0763,2.0768,2.0776,2.0785,2.0787,2.0788,2.0788,2.0788,2.0789,2.0794,2.0794,2.0789,2.0789,2.0789,0,0,2.0682,2.069,2.0694,2.0707,2.0713,2.072,2.0723,2.073,2.0736,2.0742,2.0751,2.0756,2.0765,2.0774,2.0779,2.0779,2.0791,2.0788,2.0788,2.0789,2.0794,2.0795,2.0795,2.0789,2.0789,2.0789,0,0,2.0685,2.0692,2.0698,2.0705,2.0714,2.072,2.0722,2.0733,2.0737,2.0746,2.0751,2.0757,2.077,2.0777,2.0782,2.0788,2.0791,2.079,2.079,2.0795,2.0796,2.0796,2.0799,2.0799,2.0791,2.079,2.079,0,2.0683,2.0694,2.0701,2.0708,2.0714,2.072,2.0727,2.0732,2.0744,2.0748,2.0748,2.0765,2.0772,2.0783,2.0784,2.0788,2.079,2.0789,2.0795,2.0796,2.0796,2.0799,2.0799,2.079,2.079,2.079,2.079,0,2.0691,2.0699,2.0703,2.0714,2.072,2.0727,2.0735,2.0741,2.0745,2.075,2.076,2.0768,2.0778,2.0781,2.0785,2.0792,2.0792,2.0794,2.0794,2.0797,2.0799,2.08,2.079,2.079,2.079,2.079,0,0,2.0689,2.0705,2.0707,2.0712,2.0724,2.073,2.0737,2.0747,2.0751,2.076,2.0766,2.0777,2.0779,2.0785,2.0789,2.0794,2.0798,2.0795,2.0795,2.0795,2.0808,2.0806,2.0807,2.0801,2.0801,2.0801,2.0807,0,2.0693,2.0707,2.0714,2.0725,2.0732,2.0738,2.0745,2.0753,2.0759,2.0766,2.0772,2.078,2.0782,2.0785,2.079,2.0797,2.0801,2.0796,2.0807,2.0807,2.0804,2.0808,2.0807,2.0812,2.0808,2.0808,2.0808,0,2.07,2.0708,2.072,2.0731,2.0734,2.074,2.075,2.0757,2.0766,2.077,2.0777,2.0781,2.079,2.0789,2.0801,2.0798,2.0803,2.0807,2.0807,2.0808,2.0808,2.081,2.0814,2.0815,2.0809,2.0809,2.0809,0,2.0698,2.0712,2.0721,2.0726,2.0739,2.0743,2.0748,2.0758,2.0763,2.0772,2.0775,2.0785,2.079,2.0797,2.0804,2.0803,2.0815,2.0815,2.0819,2.0818,2.0821,2.082,2.0826,2.0824,2.0824,2.0824,2.0824,0,2.0702,2.0709,2.072,2.0726,2.0734,2.0742,2.0749,2.0756,2.0764,2.0771,2.0776,2.0783,2.0792,2.0799,2.0805,2.0814,2.0816,2.082,2.0821,2.0819,2.0819,2.0822,2.0822,2.0824,2.0824,2.0824,2.0824,0,2.0701,2.0709,2.0719,2.0731,2.0734,2.074,2.075,2.0755,2.0762,2.077,2.0773,2.0783,2.0792,2.08,2.0812,2.0816,2.0825,2.0827,2.0822,2.0823,2.0825,2.0825,2.0833,2.0835,2.0832,2.0832,2.0832,0,2.0703,2.0708,2.0721,2.0726,2.0732,2.074,2.0746,2.0754,2.076,2.0771,2.0775,2.0785,2.0793,2.0807,2.0816,2.0825,2.0827,2.0829,2.0828,2.0826,2.0827,2.0827,2.0827,2.0829,2.0829,2.0829,2.0829,0,2.0705,2.0709,2.0717,2.0727,2.0734,2.0742,2.075,2.0754,2.0764,2.077,2.078,2.0786,2.0799,2.0808,2.0819,2.0824,2.0828,2.0829,2.0831,2.0829,2.0826,2.0827,2.0822,2.0829,2.0829,2.0829,2.0829,2.0829,2.0706,2.0711,2.0721,2.073,2.0737,2.0745,2.0751,2.0758,2.0766,2.0777,2.0782,2.0792,2.0801,2.0815,2.0821,2.0829,2.083,2.0832,2.0832,2.0832,2.0832,2.0825,2.0831,2.0831,2.0831,2.0831,2.0831,0,2.0709,2.0715,2.0724,2.0735,2.0743,2.0746,2.0756,2.0761,2.077,2.0779,2.0787,2.0798,2.0807,2.0816,2.0826,2.0831,2.0833,2.0833,2.0833,2.0834,2.0831,2.0829,2.0831,2.0831,2.0831,2.0831,2.0831,2.0831,2.0711,2.072,2.0726,2.0739,2.0745,2.0755,2.076,2.0768,2.0775,2.0787,2.0795,2.0801,2.081,2.0821,2.0829,2.0832,2.0835,2.0835,2.0838,2.0835,2.0835,2.0834,2.0833,2.0836,2.0836,2.0841,2.0841,2.0841]},{"header":{"parameterUnit":"m.s-1","parameterCategory":1,"la1":30.2991,"la2":30.254,"lo1":-89.0895,"lo2":-89.0444,"dy":0.0017,"dx":0.0017,"nx":28,"ny":28,"refTime":"2024-06-23T09:00:00:Z","depth":0,"parameterNumber":3,"parameterNumberName":"V-component_of_WINDS"},"data":[0,0,0,0,0,0,0,0,0,0,0,0,0,0,0,0,0,0,0,0,0,0,0,0,0,0,0,0,0,0,0,0,0,0,0,0,0,0,0,0,0,0,0,0,0,0,0,0,0,0,0,0,0,0,0,0,0,0,0.182,0.182,0,0.1835,0.1835,0.1835,0.182,0.182,0.1819,0.1819,0.1834,0.1835,0.1836,0,0,0,0,0,0,0,0,0,0,0,0,0,0.1778,0.1779,0.182,0.182,0.1821,0.1835,0.1835,0.1835,0.1821,0.182,0.1819,0.1818,0.1834,0.1835,0.1836,0,0,0,0,0,0,0,0,0,0,0,0,0,0.1795,0.1779,0.182,0.1815,0.1815,0.1835,0.1835,0.1835,0.1821,0.182,0.1819,0.1818,0.1833,0.1835,0.1836,0.1862,0,0,0.184,0.1841,0,0,0,0,0,0,0,0,0.1794,0.1796,0.1816,0.1815,0.1815,0.1825,0.1826,0.1844,0.1821,0.1818,0.1819,0.1818,0.1832,0.1833,0.1838,0.1863,0.1864,0.1841,0.1841,0.1842,0.1842,0,0,0,0,0,0,0,0.1793,0.1796,0.1826,0.1816,0.1815,0.1811,0.1813,0.1829,0.183,0.1819,0.1817,0.1819,0.1831,0.1837,0.1838,0.1864,0.1841,0.1842,0.1843,0.1843,0.1908,0.1909,0,0,0,0,0,0,0.1792,0.1795,0.1826,0.1826,0.1802,0.1813,0.1814,0.1823,0.183,0.183,0.182,0.1819,0.1835,0.1836,0.1839,0.1868,0.1842,0.1843,0.1844,0.1908,0.1909,0.191,0,0,0,0,0,0,0.1791,0.1795,0.1825,0.181,0.1814,0.1814,0.1824,0.1823,0.1828,0.1831,0.1831,0.1825,0.1834,0.1837,0.1856,0.1868,0.1844,0.1845,0.1906,0.1908,0.1909,0.1928,0,0,0,0,0,0,0.179,0.1795,0.1806,0.1811,0.1815,0.1843,0.1825,0.1824,0.1831,0.1829,0.1836,0.1836,0.1833,0.1854,0.1857,0.187,0.1846,0.1905,0.1907,0.1909,0.1926,0.193,0.1933,0,0,0,0,0,0.1789,0.1811,0.1806,0.181,0.1828,0.1843,0.1846,0.1842,0.1832,0.1842,0.1843,0.1836,0.1866,0.1856,0.186,0.1873,0.1905,0.1907,0.1909,0.1925,0.1929,0.1933,0,0,0,0,0,0,0.1808,0.1812,0.1806,0.1831,0.1837,0.1841,0.1854,0.1847,0.1857,0.1855,0.185,0.1851,0.1871,0.1874,0.1862,0.1897,0.1884,0.1887,0.1895,0.1899,0.1902,0.1901,0.1848,0,0,0,0,0,0.1815,0.1827,0.183,0.1851,0.1854,0.1853,0.186,0.1857,0.1863,0.1865,0.1868,0.1874,0.1885,0.1892,0.1902,0.1926,0.1927,0.1937,0.194,0.1943,0.1946,0.1956,0.196,0.1916,0.1916,0.1916,0,0,0.183,0.1833,0.1842,0.1855,0.1859,0.1871,0.1856,0.187,0.1879,0.1868,0.1885,0.1887,0.1894,0.1915,0.1924,0.1918,0.1958,0.1946,0.1948,0.1949,0.1959,0.1963,0.1967,0.1917,0.1917,0.1917,0,0,0.1863,0.1867,0.1884,0.1888,0.1894,0.1893,0.1897,0.1902,0.1902,0.192,0.1911,0.1921,0.1941,0.1945,0.1949,0.1981,0.1974,0.1984,0.2001,0.2012,0.2015,0.2018,0.2028,0.2032,0.1987,0.1987,0.1987,0,0.188,0.1899,0.1894,0.1908,0.1913,0.1903,0.1919,0.1924,0.1933,0.1937,0.1929,0.1951,0.1955,0.1976,0.1983,0.1988,0.1991,0.1984,0.2015,0.2018,0.2021,0.203,0.2034,0.1988,0.1988,0.1988,0.1988,0,0.1919,0.1932,0.1945,0.1953,0.196,0.1975,0.1972,0.1979,0.1975,0.1974,0.1991,0.1995,0.2004,0.2009,0.2005,0.2029,0.2024,0.2016,0.2002,0.2027,0.2035,0.2039,0.199,0.1989,0.1989,0.1989,0,0,0.1966,0.1969,0.1974,0.1977,0.1982,0.1991,0.2005,0.2014,0.2019,0.2026,0.2036,0.2052,0.2043,0.2048,0.2045,0.2054,0.2077,0.2045,0.2045,0.2049,0.2101,0.2106,0.2111,0.2072,0.2073,0.2073,0.21,0,0.1998,0.2022,0.2017,0.204,0.2051,0.204,0.2052,0.2055,0.2054,0.2063,0.2062,0.2072,0.2061,0.2064,0.2073,0.2072,0.2087,0.207,0.2081,0.2081,0.2079,0.2115,0.2122,0.2147,0.2103,0.2104,0.2104,0,0.2039,0.2045,0.2069,0.207,0.2074,0.2085,0.2091,0.21,0.2103,0.2102,0.2106,0.21,0.2113,0.2099,0.2115,0.2104,0.2108,0.2108,0.2109,0.2109,0.2094,0.2116,0.2155,0.2158,0.211,0.2109,0.2109,0,0.2069,0.2083,0.2099,0.2102,0.2103,0.2111,0.2112,0.2114,0.2119,0.2125,0.2127,0.2135,0.2138,0.2144,0.2139,0.2129,0.2156,0.2142,0.2154,0.2154,0.216,0.2159,0.2199,0.2164,0.2164,0.2164,0.2164,0,0.2104,0.2119,0.2112,0.2122,0.2137,0.2131,0.2146,0.2146,0.2148,0.2156,0.2147,0.2156,0.215,0.2157,0.2153,0.2167,0.2169,0.2167,0.2166,0.2168,0.2168,0.217,0.2168,0.2165,0.2164,0.2164,0.2164,0,0.2141,0.2136,0.2152,0.2152,0.2152,0.2164,0.2163,0.2171,0.2169,0.218,0.2182,0.2178,0.2186,0.2182,0.2191,0.2188,0.2205,0.2202,0.2204,0.2203,0.2215,0.2213,0.2257,0.2261,0.2224,0.2224,0.2224,0,0.2163,0.2174,0.2174,0.2179,0.218,0.2189,0.2193,0.2186,0.2191,0.2194,0.2202,0.2209,0.2214,0.2227,0.2225,0.2231,0.2227,0.2242,0.2228,0.2229,0.2226,0.2225,0.2225,0.2245,0.2245,0.2246,0.2246,0,0.2204,0.22,0.2207,0.2212,0.2217,0.2221,0.2224,0.2228,0.2222,0.2227,0.2235,0.2239,0.2246,0.2253,0.2258,0.2258,0.2251,0.225,0.2253,0.2255,0.2255,0.2253,0.221,0.2249,0.2249,0.2249,0.2248,0.2248,0.2233,0.2241,0.2242,0.2248,0.225,0.2252,0.2259,0.2257,0.2263,0.2269,0.2264,0.2273,0.2274,0.2279,0.228,0.2286,0.228,0.2285,0.2286,0.2287,0.2288,0.2254,0.2287,0.2287,0.2287,0.2287,0.2287,0,0.2271,0.2271,0.2277,0.2281,0.2286,0.2277,0.228,0.2284,0.2292,0.2293,0.2298,0.2305,0.2311,0.2309,0.2314,0.2319,0.2315,0.232,0.232,0.2319,0.2294,0.229,0.2323,0.2323,0.2323,0.2323,0.2323,0.2323,0.2292,0.2305,0.2301,0.2314,0.2313,0.2321,0.2323,0.2324,0.2325,0.2334,0.2338,0.2336,0.2336,0.234,0.2344,0.2344,0.2345,0.2351,0.2349,0.2325,0.2321,0.2318,0.2315,0.2352,0.2352,0.2374,0.2374,0.2374]}]]